When you browse on this site, cookies collect data to enhance your experience and personalize the content and advertising you see.
Visit our Privacy Policy to learn more. By continuing to use the site, you agree to this use of cookies and data.
  • In United Kingdom
  • List of Countries
  • For 7 days
  • Water Temperature
  • Weather Map
  • Weather Widgets
  • user-avatar
    Login

    Hourly Weather Kildare

    Today, 16 September, Monday

    Time Temperature Precipitation Wind Pressure Humidity
    00:00 +14°C° 0 mm 2 mps 758 mmHg 98%
    01:00 +14°C° 0.3 mm 2 mps 758 mmHg 98%
    02:00 +14°C° 0.3 mm 2 mps 758 mmHg 98%
    03:00 +14°C° 0.3 mm 1 mps 758 mmHg 98%
    04:00 +14°C° 0.1 mm 2 mps 758 mmHg 98%
    05:00 +13°C° 0.1 mm 2 mps 758 mmHg 97%
    06:00 +12°C° 0.1 mm 3 mps 758 mmHg 97%
    07:00 +12°C° 0 mm 3 mps 758 mmHg 96%
    08:00 +12°C° 0 mm 3 mps 758 mmHg 95%
    09:00 +12°C° 0 mm 3 mps 759 mmHg 93%
    10:00 +13°C° 0 mm 3 mps 759 mmHg 90%
    11:00 +14°C° 0 mm 3 mps 760 mmHg 87%
    12:00 +14°C° 0 mm 3 mps 760 mmHg 84%
    13:00 +15°C° 0 mm 2 mps 760 mmHg 82%
    14:00 +15°C° 0 mm 2 mps 760 mmHg 81%
    15:00 +16°C° 0 mm 2 mps 760 mmHg 79%
    16:00 +15°C° 0 mm 2 mps 760 mmHg 80%
    17:00 +15°C° 0 mm 2 mps 760 mmHg 81%
    18:00 +14°C° 0 mm 2 mps 760 mmHg 81%
    19:00 +13°C° 0 mm 2 mps 761 mmHg 82%
    20:00 +12°C° 0 mm 2 mps 761 mmHg 83%
    21:00 +11°C° 0 mm 1 mps 762 mmHg 84%
    22:00 +10°C° 0 mm 1 mps 762 mmHg 87%
    23:00 +10°C° 0 mm 1 mps 762 mmHg 90%

    Tomorrow, 17 September, Tuesday

    Time Temperature Precipitation Wind Pressure Humidity
    00:00 +8°C° 0 mm 2 mps 762 mmHg 93%
    01:00 +7°C° 0 mm 2 mps 762 mmHg 93%
    02:00 +7°C° 0 mm 2 mps 762 mmHg 94%
    03:00 +6°C° 0 mm 2 mps 762 mmHg 94%
    04:00 +6°C° 0 mm 2 mps 762 mmHg 94%
    05:00 +6°C° 0 mm 2 mps 762 mmHg 94%
    06:00 +7°C° 0 mm 1 mps 762 mmHg 94%
    07:00 +7°C° 0 mm 2 mps 762 mmHg 89%
    08:00 +9°C° 0 mm 2 mps 763 mmHg 84%
    09:00 +12°C° 0 mm 2 mps 763 mmHg 79%
    10:00 +13°C° 0 mm 2 mps 763 mmHg 74%
    11:00 +14°C° 0 mm 2 mps 763 mmHg 70%
    12:00 +15°C° 0 mm 2 mps 763 mmHg 65%
    13:00 +15°C° 0 mm 2 mps 763 mmHg 65%
    14:00 +16°C° 0 mm 2 mps 763 mmHg 65%
    15:00 +16°C° 0 mm 2 mps 763 mmHg 64%
    16:00 +15°C° 0 mm 1 mps 763 mmHg 70%
    17:00 +14°C° 0 mm 1 mps 763 mmHg 75%
    18:00 +13°C° 0 mm 1 mps 763 mmHg 80%
    19:00 +12°C° 0 mm 1 mps 763 mmHg 82%
    20:00 +11°C° 0 mm 1 mps 763 mmHg 84%
    21:00 +10°C° 0 mm 1 mps 764 mmHg 85%
    22:00 +9°C° 0 mm 1 mps 764 mmHg 86%
    23:00 +9°C° 0 mm 1 mps 764 mmHg 87%

    Day after tomorrow, 18 September, Wednesday

    Time Temperature Precipitation Wind Pressure Humidity
    00:00 +9°C° 0 mm 1 mps 764 mmHg 88%
    01:00 +9°C° 0 mm 1 mps 764 mmHg 89%
    02:00 +8°C° 0 mm 1 mps 764 mmHg 89%
    03:00 +8°C° 0 mm 1 mps 764 mmHg 90%
    04:00 +8°C° 0 mm 1 mps 764 mmHg 90%
    05:00 +8°C° 0 mm 1 mps 764 mmHg 89%
    06:00 +7°C° 0 mm 0 mps 764 mmHg 89%
    07:00 +10°C° 0 mm 1 mps 764 mmHg 84%
    08:00 +12°C° 0 mm 1 mps 764 mmHg 80%
    09:00 +13°C° 0 mm 1 mps 765 mmHg 75%
    10:00 +15°C° 0 mm 1 mps 765 mmHg 72%
    11:00 +16°C° 0 mm 1 mps 765 mmHg 69%
    12:00 +18°C° 0 mm 1 mps 765 mmHg 66%
    13:00 +18°C° 0 mm 1 mps 765 mmHg 66%
    14:00 +19°C° 0 mm 1 mps 765 mmHg 66%
    15:00 +19°C° 0 mm 1 mps 764 mmHg 67%
    16:00 +18°C° 0 mm 1 mps 764 mmHg 72%
    17:00 +15°C° 0 mm 0 mps 764 mmHg 77%
    18:00 +14°C° 0 mm 0 mps 764 mmHg 83%
    19:00 +13°C° 0 mm 0 mps 765 mmHg 85%
    20:00 +12°C° 0 mm 0 mps 765 mmHg 87%
    21:00 +11°C° 0 mm 0 mps 765 mmHg 89%
    22:00 +10°C° 0 mm 0 mps 765 mmHg 90%
    23:00 +10°C° 0 mm 0 mps 765 mmHg 90%

    19 September, Thursday

    Time Temperature Precipitation Wind Pressure Humidity
    00:00 +10°C° 0 mm 0 mps 765 mmHg 90%
    01:00 +10°C° 0 mm 0 mps 765 mmHg 91%
    02:00 +10°C° 0 mm 0 mps 765 mmHg 91%
    03:00 +9°C° 0 mm 0 mps 765 mmHg 91%
    04:00 +9°C° 0 mm 0 mps 765 mmHg 91%
    05:00 +9°C° 0 mm 0 mps 765 mmHg 91%
    06:00 +9°C° 0 mm 0 mps 765 mmHg 91%
    07:00 +11°C° 0 mm 0 mps 765 mmHg 87%
    08:00 +13°C° 0 mm 1 mps 765 mmHg 83%
    09:00 +15°C° 0 mm 1 mps 765 mmHg 79%
    10:00 +16°C° 0 mm 1 mps 765 mmHg 75%
    11:00 +19°C° 0 mm 1 mps 765 mmHg 71%
    12:00 +19°C° 0 mm 2 mps 765 mmHg 66%
    13:00 +19°C° 0 mm 2 mps 765 mmHg 67%
    14:00 +19°C° 0 mm 2 mps 765 mmHg 68%
    15:00 +19°C° 0 mm 2 mps 764 mmHg 69%
    16:00 +18°C° 0 mm 2 mps 764 mmHg 75%
    17:00 +17°C° 0 mm 2 mps 764 mmHg 80%
    18:00 +15°C° 0 mm 2 mps 764 mmHg 86%
    19:00 +14°C° 0 mm 1 mps 764 mmHg 88%
    20:00 +13°C° 0 mm 1 mps 764 mmHg 89%
    21:00 +12°C° 0 mm 1 mps 764 mmHg 91%
    22:00 +12°C° 0 mm 1 mps 764 mmHg 90%
    23:00 +12°C° 0 mm 1 mps 763 mmHg 89%

    20 September, Friday

    Time Temperature Precipitation Wind Pressure Humidity
    00:00 +10°C° 0 mm 2 mps 763 mmHg 88%
    01:00 +10°C° 0 mm 2 mps 762 mmHg 89%
    02:00 +10°C° 0 mm 2 mps 762 mmHg 89%
    03:00 +10°C° 0 mm 2 mps 762 mmHg 90%
    04:00 +10°C° 0 mm 2 mps 761 mmHg 91%
    05:00 +10°C° 0 mm 2 mps 761 mmHg 92%
    06:00 +10°C° 0 mm 2 mps 760 mmHg 93%
    07:00 +13°C° 0 mm 2 mps 760 mmHg 89%
    08:00 +15°C° 0 mm 2 mps 760 mmHg 86%
    09:00 +16°C° 0 mm 3 mps 760 mmHg 83%
    10:00 +17°C° 0 mm 3 mps 759 mmHg 79%
    11:00 +18°C° 0 mm 4 mps 759 mmHg 76%
    12:00 +19°C° 0 mm 5 mps 759 mmHg 73%
    13:00 +19°C° 0 mm 5 mps 758 mmHg 72%
    14:00 +19°C° 0 mm 5 mps 757 mmHg 71%
    15:00 +19°C° 0 mm 5 mps 756 mmHg 70%
    16:00 +17°C° 0 mm 5 mps 756 mmHg 74%
    17:00 +15°C° 0 mm 4 mps 755 mmHg 79%
    18:00 +14°C° 0 mm 3 mps 755 mmHg 83%
    19:00 +13°C° 0 mm 3 mps 754 mmHg 86%
    20:00 +13°C° 0 mm 4 mps 754 mmHg 88%
    21:00 +12°C° 0 mm 4 mps 754 mmHg 91%
    22:00 +12°C° 0 mm 4 mps 753 mmHg 89%
    23:00 +12°C° 0 mm 4 mps 753 mmHg 88%

    21 September, Saturday

    Time Temperature Precipitation Wind Pressure Humidity
    00:00 +11°C° 0 mm 4 mps 752 mmHg 87%
    01:00 +11°C° 0 mm 4 mps 751 mmHg 87%
    02:00 +11°C° 0 mm 4 mps 751 mmHg 87%
    03:00 +10°C° 0 mm 4 mps 750 mmHg 88%
    04:00 +10°C° 0 mm 4 mps 750 mmHg 88%
    05:00 +10°C° 0 mm 4 mps 749 mmHg 89%
    06:00 +10°C° 0 mm 3 mps 749 mmHg 90%
    07:00 +12°C° 0 mm 4 mps 748 mmHg 86%
    08:00 +13°C° 0 mm 5 mps 748 mmHg 82%
    09:00 +15°C° 0 mm 5 mps 748 mmHg 78%
    10:00 +16°C° 0 mm 6 mps 747 mmHg 75%
    11:00 +17°C° 0 mm 6 mps 747 mmHg 72%
    12:00 +19°C° 0 mm 6 mps 747 mmHg 70%
    13:00 +19°C° 0 mm 6 mps 747 mmHg 72%
    14:00 +19°C° 0 mm 5 mps 747 mmHg 74%
    15:00 +19°C° 0 mm 5 mps 747 mmHg 76%
    16:00 +17°C° 0 mm 5 mps 747 mmHg 80%
    17:00 +17°C° 0 mm 4 mps 747 mmHg 85%
    18:00 +17°C° 0 mm 4 mps 747 mmHg 89%
    19:00 +16°C° 0 mm 3 mps 747 mmHg 91%
    20:00 +14°C° 0 mm 3 mps 747 mmHg 94%
    21:00 +14°C° 0 mm 3 mps 747 mmHg 96%
    22:00 +14°C° 0 mm 3 mps 747 mmHg 95%
    23:00 +14°C° 0 mm 3 mps 747 mmHg 95%
    Show more